Weather History for Gainesville, FL

Change the Weather History Date:

Sunday, March 30, 2003

  Actual Average Record
Temperature  
Mean Temperature 57 °F 64 °F  
Max Temperature 64 °F 77 °F 94 °F (1907)
Min Temperature 48 °F 52 °F 34 °F (1964)
Degree Days  
Heating Degree Days 8 3  
Month to date heating degree days 135  
Since 1 July heating degree days 1169  
Cooling Degree Days 0 2  
Month to date cooling degree days 54  
Year to date cooling degree days 86  
Growing Degree Days 7 (Base 50)    
Moisture  
Dew Point 52 °F    
Average Humidity 86    
Maximum Humidity 100    
Minimum Humidity 53    
Precipitation  
Precipitation 0.36 in 0.12 in 3.24 in (1996)
Month to date precipitation 4.20  
Year to date precipitation 10.71  
Snow  
Snow 0.00 in 0.00 in 0.00 in ()
Month to date snowfall 0.0  
Since 1 July snowfall 0.0  
Snow Depth -    
Sea Level Pressure  
Sea Level Pressure 29.94 in    
Wind  
Wind Speed 7 mph (WNW)    
Max Wind Speed 17 mph    
Max Gust Speed 25 mph    
Visibility 7 miles    
Events Rain    
T = Trace of Precipitation, MM = Missing Value Source: NWS Daily Summary

Daily Weather History Graph

Daily Weather History Graph

Search for Another Location

Airport:

Trip Planner

Search our weather history database for the weather conditions in past years. The results will help you decide how hot, cold, wet, or windy it might be!

Date:

Astronomy

Mar. 30, 2003 Rise Set
Actual Time 6:21 AM EST 6:46 PM EST
Civil Twilight 5:57 AM EST 7:10 PM EST
Nautical Twilight 5:29 AM EST 7:38 PM EST
Astronomical Twilight 5:01 AM EST 8:06 PM EST
Moon 5:31 AM EST (3/30) 5:03 PM EST (3/30)
Length of Visible Light 13h 12m
Length of Day
12h 24m
Waning Crescent, 4% of the Moon is Illuminated
Mar 30
Waning Crescent
Apr 1
New
Apr 9
First Quarter
Apr 16
Full
Apr 23
Last Quarter

Hourly Weather History & Observations

Time (EST) Temp. Dew Point Humidity Pressure Visibility Wind Dir Wind Speed Gust Speed Precip Events Conditions
12:53 AM 63.0 °F 63.0 °F 100% 29.92 in 7.0 mi West 3.5 mph - N/A   Clear
1:53 AM 63.0 °F 62.1 °F 97% 29.89 in 5.0 mi Calm Calm - N/A   Clear
2:39 AM 60.8 °F 60.8 °F 100% 29.87 in 6.0 mi ESE 4.6 mph - N/A   Scattered Clouds
2:53 AM 61.0 °F 61.0 °F 100% 29.87 in 5.0 mi Calm Calm - N/A   Mostly Cloudy
3:53 AM 63.0 °F 63.0 °F 100% 29.85 in 3.0 mi Calm Calm - N/A   Overcast
3:59 AM 62.6 °F 62.6 °F 100% 29.86 in 1.8 mi SW 3.5 mph - N/A   Overcast
4:12 AM 62.6 °F 62.6 °F 100% 29.86 in 0.8 mi SSW 6.9 mph - N/A   Mist
4:44 AM 64.4 °F 64.4 °F 100% 29.84 in 1.2 mi SW 3.5 mph - N/A   Overcast
4:53 AM 64.0 °F 64.0 °F 100% 29.85 in 3.0 mi WSW 4.6 mph - N/A   Overcast
5:07 AM 64.4 °F 64.4 °F 100% 29.87 in 4.0 mi SW 8.1 mph - N/A   Overcast
5:45 AM 64.4 °F 64.4 °F 100% 29.87 in 6.0 mi WSW 5.8 mph - N/A   Overcast
5:53 AM 64.9 °F 64.0 °F 97% 29.85 in 6.0 mi West 5.8 mph - N/A   Overcast
6:42 AM 64.4 °F 64.4 °F 100% 29.81 in 5.0 mi North 4.6 mph - 0.01 in Rain Light Rain
6:53 AM 64.9 °F 64.0 °F 97% 29.83 in 5.0 mi WNW 4.6 mph - 0.01 in Rain Light Rain
7:09 AM 64.4 °F 64.4 °F 100% 29.84 in 5.0 mi WNW 8.1 mph - 0.00 in   Overcast
7:53 AM 57.0 °F 55.0 °F 93% 29.89 in 3.0 mi NW 15.0 mph 23.0 mph 0.03 in Rain Light Rain
8:32 AM 53.6 °F 51.8 °F 94% 29.92 in 6.0 mi NW 11.5 mph - 0.02 in Rain Light Rain
8:53 AM 52.0 °F 50.0 °F 93% 29.95 in 4.0 mi WNW 13.8 mph 24.2 mph 0.04 in Rain Rain
9:01 AM 51.8 °F 50.0 °F 94% 29.95 in 3.0 mi NW 16.1 mph - 0.02 in Rain Light Rain
9:14 AM 51.8 °F 50.0 °F 94% 29.96 in 2.5 mi NW 12.7 mph - 0.07 in Rain Rain
9:31 AM 51.8 °F 50.0 °F 94% 29.95 in 2.0 mi NNW 9.2 mph - 0.15 in Rain Heavy Rain
9:46 AM 51.8 °F 48.2 °F 88% 29.96 in 2.5 mi NNW 11.5 mph - 0.23 in Rain Rain
9:53 AM 51.1 °F 48.9 °F 92% 29.96 in 4.0 mi NW 10.4 mph - 0.24 in Rain Rain
10:00 AM 51.8 °F 48.2 °F 88% 29.97 in 2.0 mi NW 9.2 mph - 0.02 in Rain Rain
10:36 AM 51.8 °F 48.2 °F 88% 29.94 in 8.0 mi NNW 10.4 mph - 0.04 in Rain Light Rain
10:45 AM 51.8 °F 50.0 °F 94% 29.94 in 10.0 mi NNW 8.1 mph - 0.04 in Rain Light Rain
10:53 AM 51.1 °F 50.0 °F 96% 29.94 in 10.0 mi NNW 6.9 mph - 0.04 in   Overcast
11:10 AM 51.8 °F 50.0 °F 94% 29.95 in 10.0 mi NW 10.4 mph - N/A   Overcast
11:43 AM 51.8 °F 50.0 °F 94% 29.95 in 10.0 mi NW 9.2 mph - N/A   Overcast
11:53 AM 52.0 °F 50.0 °F 93% 29.95 in 10.0 mi NW 9.2 mph - N/A   Overcast
12:16 PM 51.8 °F 50.0 °F 94% 29.95 in 10.0 mi NW 10.4 mph 18.4 mph N/A   Overcast
12:53 PM 54.0 °F 48.9 °F 83% 29.95 in 10.0 mi NW 12.7 mph - N/A   Overcast
1:00 PM 53.6 °F 48.2 °F 82% 29.96 in 10.0 mi NW 15.0 mph - N/A   Overcast
1:15 PM 53.6 °F 48.2 °F 82% 29.96 in 10.0 mi WNW 11.5 mph - N/A   Overcast
1:26 PM 53.6 °F 48.2 °F 82% 29.96 in 10.0 mi WNW 13.8 mph - N/A   Overcast
1:53 PM 54.0 °F 48.9 °F 83% 29.96 in 10.0 mi WNW 11.5 mph - N/A   Overcast
2:53 PM 57.0 °F 46.0 °F 67% 29.94 in 10.0 mi WNW 17.3 mph 25.3 mph N/A   Mostly Cloudy
3:00 PM 57.2 °F 44.6 °F 63% 29.95 in 10.0 mi NW 15.0 mph 23.0 mph N/A   Partly Cloudy
3:53 PM 57.9 °F 44.1 °F 60% 29.95 in 10.0 mi WNW 16.1 mph 21.9 mph N/A   Clear
4:53 PM 57.9 °F 43.0 °F 58% 29.96 in 10.0 mi WNW 15.0 mph 18.4 mph N/A   Clear
5:53 PM 57.9 °F 41.0 °F 53% 29.99 in 10.0 mi WNW 12.7 mph - N/A   Scattered Clouds
6:53 PM 55.0 °F 39.0 °F 55% 30.02 in 10.0 mi WNW 9.2 mph - N/A   Clear
7:53 PM 52.0 °F 39.9 °F 63% 30.06 in 10.0 mi WNW 6.9 mph - N/A   Clear
8:53 PM 51.1 °F 39.0 °F 63% 30.12 in 10.0 mi WNW 6.9 mph - N/A   Clear
9:53 PM 51.1 °F 37.9 °F 61% 30.15 in 10.0 mi West 8.1 mph - N/A   Scattered Clouds
10:53 PM 50.0 °F 36.0 °F 59% 30.17 in 10.0 mi WNW 10.4 mph - N/A   Clear
11:53 PM 48.9 °F 33.1 °F 54% 30.18 in 10.0 mi WNW 12.7 mph - N/A   Clear